Home > Weather > Paradise > Past weeks

Flag for USA Past Weather in Paradise, Nevada, USA — Yesterday and Last 2 Weeks

Now
108 °F

Scattered clouds.


Feels Like: 102 °F
Forecast: 83 / 109 °F
Wind: 8 mph from Southeast

Location: McCarran International Airport

Current Time: Jul 25, 2016 at 1:20:40 PM

Latest Report: Jul 25, 2016 at 12:56 PM


Visibility: 10 mi

Pressure: 29.76 "Hg (27.76 "Hg at 643m altitude)

Humidity: 8%

Dew Point: 34 °F

Location of ParadiseLocation

Past Weather in Paradise — Graph

°F

Paradise Temperature Yesterday

Maximum temperature yesterday: 111 °F (at 2:56 PM)
Minimum temperature yesterday: 88 °F (at 5:56 AM)
Average temperature yesterday: 101 °F

High & Low Weather Summary for the Past Weeks

 TemperatureHumidityPressure
High112 °F (Jul 23, 1:56 PM)26% (Jul 21, 5:56 AM)29.89 "Hg (Jul 21, 5:56 AM)
Low77 °F (Jul 11, 5:56 AM)2% (Jul 15, 1:56 PM)29.57 "Hg (Jul 10, 5:56 PM)
Average97 °F9%29.74 "Hg
* Reported Jul 10 11:56 AM — Jul 25 11:56 AM, Paradise, Weather by CustomWeather, © 2016

Note: Actual official high and low records may vary slightly from our data, if they occured in-between our weather recording intervals... More about our weather records

Advertising

Paradise Weather History for the Previous 24 Hours

Scroll right to see more
 ConditionsComfort  
Time TempWeatherWind HumidityBarometerVisibility
11:56 AM
Mon, Jul 25
104 °FScattered clouds.3 mph11%29.78 "Hg10 mi
10:56 AM101 °FScattered clouds.5 mph13%29.80 "Hg10 mi
9:56 AM100 °FScattered clouds.5 mph10%29.80 "Hg9 mi
8:56 AM97 °FScattered clouds.6 mph11%29.80 "Hg10 mi
7:56 AM92 °FPassing clouds.5 mph14%29.79 "Hg9 mi
6:56 AM90 °FPassing clouds.5 mph14%29.78 "Hg7 mi
5:56 AM89 °FHaze.6 mph14%29.77 "Hg6 mi
4:56 AM91 °FPassing clouds.9 mph12%29.74 "Hg8 mi
3:56 AM91 °FPassing clouds.10 mph12%29.72 "Hg8 mi
2:56 AM93 °FPassing clouds.9 mph11%29.72 "Hg10 mi
1:56 AM94 °FPassing clouds.7 mph10%29.71 "Hg10 mi
12:56 AM97 °FPassing clouds.8 mph8%29.71 "Hg10 mi
11:56 PM
Sun, Jul 24
98 °FPassing clouds.13 mph11%29.70 "Hg10 mi
10:56 PM100 °FClear.13 mph14%29.69 "Hg10 mi
9:56 PM102 °FClear.8 mph13%29.69 "Hg10 mi
8:56 PM103 °FClear.9 mph9%29.67 "Hg10 mi
7:56 PM105 °FPassing clouds.7 mph8%29.66 "Hg8 mi
6:56 PM107 °FSunny.13 mph8%29.65 "Hg10 mi
5:56 PM109 °FSunny.12 mph7%29.64 "Hg10 mi
4:56 PM109 °FSunny.14 mph6%29.65 "Hg10 mi
3:56 PM110 °FPassing clouds.10 mph6%29.67 "Hg10 mi
2:56 PM111 °FPassing clouds.13 mph6%29.68 "Hg10 mi
1:56 PM109 °FPassing clouds.14 mph6%29.70 "Hg10 mi
Weather by CustomWeather, © 2016

See weather overviewHow to use our weather pages